KLVKKHWD

Guest
Details From KLVK - Livermore Muni
To KHWD - Hayward Executive
Flight Number -
Tags Generated
Created
Modified
Stats Distance 14 nm / 27 km
Max Altitude 0 ft / 0 m
Waypoints 2
Social Downloads 0
Likes 0
Share VATSIM

Download

Looking for another format? Having issues loading an existing format? Contact us
Advertisement - Login to hide

Notes

Generated

Route

KLVK KHWD

ID Type Via Altitude (ft/m) Position (lat/lon) Dist (leg/tot) Name
O KLVK APT - 0 / 0 37.69253 / -121.82509 - / 0 nm
O KHWD APT - 0 / 0 37.66248 / -122.12726 14 / 14 nm

Altitude Profile

Advertisement - Login to hide

KLVK

Details ICAO KLVK (LVK)
Name Livermore Muni
Region United States
Timezone America/Los_Angeles (UTC-7.0)
Stats Elevation 399 ft / 122 m (AMSL)
Location 37.693200° -121.820000°
Runways 2
Magnetic Variation 13.254° E

METAR

KLVK 261253Z AUTO 27011G23KT 10SM BKN022 OVC090 11/07 A2977 RMK AO2 PK WND 26030/1231 SLP080 T01060067

Decode

TAF

TAF KLVK 261140Z 2612/2712 24018G25KT P6SM -SHRA BKN025 OVC050 FM261800 25018G25KT P6SM VCTS BKN040CB FM262100 26014KT P6SM VCTS BKN040CB FM270100 25010KT P6SM VCSH BKN040

Decode

Departure Runways

ID Width Length Bearing (true/mag) Surface Threshold Overrun Markings Lighting
07L 98 ft / 30 m 5,241 ft / 1,598 m 90.57° / 77.31° ASPHALT 0 ft / 0 m 151 ft / 46 m PREC-APP EDGE THRESHOLD
07R 75 ft / 23 m 2,694 ft / 821 m 90.58° / 77.33° ASPHALT 0 ft / 0 m 0 ft / 0 m VISUAL
25L 75 ft / 23 m 2,694 ft / 821 m 270.58° / 257.33° ASPHALT 0 ft / 0 m 0 ft / 0 m VISUAL
25R 98 ft / 30 m 5,241 ft / 1,598 m 270.58° / 257.33° ASPHALT 0 ft / 0 m 151 ft / 46 m PREC-APP EDGE THRESHOLD MALSR

KHWD

Details ICAO KHWD (HWD)
Name Hayward Executive
Region United States
Timezone America/Los_Angeles (UTC-7.0)
Stats Elevation 52 ft / 16 m (AMSL)
Location 37.659300° -122.122000°
Runways 2
Magnetic Variation 13.295° E

METAR

KHWD 261254Z AUTO 29016G22KT 10SM BKN022 OVC030 12/07 A2979 RMK AO2 PK WND 28028/1203 SLP096 T01170072

Decode

TAF

Not found

Destination Runways

ID Width Length Bearing (true/mag) Surface Threshold Overrun Markings Lighting
10L 75 ft / 23 m 3,104 ft / 946 m 119.95° / 106.66° ASPHALT 0 ft / 0 m 0 ft / 0 m APP EDGE THRESHOLD
10R 151 ft / 46 m 5,688 ft / 1,734 m 119.95° / 106.66° ASPHALT 817 ft / 249 m 0 ft / 0 m APP EDGE THRESHOLD REIL-OMNI
28L 151 ft / 46 m 5,688 ft / 1,734 m 299.96° / 286.67° ASPHALT 676 ft / 206 m 0 ft / 0 m PREC-APP EDGE THRESHOLD REIL-OMNI
28R 75 ft / 23 m 3,104 ft / 946 m 299.96° / 286.67° ASPHALT 0 ft / 0 m 0 ft / 0 m APP EDGE THRESHOLD

Approach Navaids

Runway Type Ident Frequency Range Bearing (true/mag) Slope Elevation
28L DME IHWD 111.50 MHz 18 nm / 33 km - - 42 ft / 13 m (AMSL)
28L LOC-LOC IHWD 111.50 MHz 18 nm / 33 km 302.00° / 288.71 ° - 27 ft / 8 m (AMSL)

Popular Alternatives